STARLINK-30181, 57444

Orbit data source: Space-Track

STARLINK-30181, 57444 is a payload satellite owned by SpaceX/Seattle (US) in LEO that was launched on Mon, 24 Jul 2023 UTC via an FALCON 9 launch vehicle from the Air Force Eastern Test Range (AFETR). Payload-class satellites include a variety of spacecraft equipped with specific instruments for various scientific and technological missions. These include communications satellites like Starlink; space stations such as the ISS; scientific satellites like the Hubble; Earth observation satellites from companies like Planet Labs, Umbra, and HawkEye 360; GPS; miniature CubeSats for education and research; and military/defense satellites.

Loading next visibility...
Identifier
57444, 2023-105Q
Orbit
LEO
Country
Flag of USUS
Related business
Manufacturer
SpaceX/Seattle
Mission
Operational Commercial Communications
Bus & Motor
STARLINK V2M, Unknown motor
Mass
730 kg wet, ~700 kg dry
Launch date (UTC)
2023-07-24 (3 years ago)
Launch vehicle
FALCON 9
Launch site
Air Force Eastern Test Range (AFETR)
Object type
Payload
Rocket body
Debris
Shape & HBR
Box + 2 Pan, 17.7 m
Radar Cross Section
33.884 m², Large (>1 m²)

Expand to show TLE details & history
Last TLE update: 2 days ago

TLE from 2 days ago
0 STARLINK-30181
1 57444U 23105Q   26171.35265207  .00001785  00000-0  74378-4 0  9996
2 57444  43.0074  43.3968 0001253 269.3934  90.6774 15.27576697161303
Epoch: 2026-06-20T08:27Z
TLE epoch observation values (Epoch: 2026-06-20T08:27:49.138Z)
Latitude
-0.00005°
Longitude
7.87351°
Altitude
482.845 km
Speed
7.626 km/s
True Right ascension
02h 53m 35s
True Declination
0° 00' 00"
Sunlit
Object was in daylight at epoch
Visualization orbit readout
Latitude
Unknown
Longitude
Unknown
Altitude
Unknown
Speed
Unknown
Apparent Right ascension
Unknown
Apparent Declination
Unknown
Sunlit
N/A
Visualization observer readout
Local Sidereal Time
21:32:02
Azimuth
Unknown
Elevation
Unknown
Doppler factor
Unknown
Orbital elements
Apogee altitude
485.863 km
Perigee altitude
484.143 km
Semi-major axis
6,863.14 km
Eccentricity
0.00013
Inclination
43.0074°
RAAN
43.3968°
Arg. of periapsis
269.3934°
True anomaly
90.69176°
Mean anomaly
90.6774°
Eccentric anomaly
90.68458°
Mean motion
3.81732 °/min
Orbital period
94.31 mins
BSTAR
0.000074378
Loading maneuver chart data...
Computing Atmospheric mass density...

Documentation

Showing up to 5 results
|